| time (UTC) | temp F | wind direction | speed MPH | gust MPH | rain 1hr in | rain 24hr in | rain mn in | humidity % | barometer mb |
| 20260902021515 | 63 | 340 | 0.0 | 1.0 | 0.00 | 0.01 | 0.00 | 84 | 1020.5 |
| 20260902020046 | 63 | 342 | 0.0 | 2.0 | 0.00 | 0.01 | 0.00 | 83 | 1020.3 |
| 20260902014531 | 64 | 295 | 0.0 | 1.0 | 0.00 | 0.01 | 0.00 | 82 | 1020.5 |
| 20260902013049 | 64 | 325 | 0.0 | 0.0 | 0.00 | 0.01 | 0.00 | 82 | 1020.4 |
| 20260902011535 | 65 | 330 | 0.0 | 1.0 | 0.00 | 0.01 | 0.00 | 80 | 1020.4 |
| 20260902004519 | 64 | 261 | 0.0 | 1.0 | 0.00 | 0.04 | 0.00 | 82 | 1020.5 |
| 20260902003052 | 65 | 285 | 1.0 | 2.0 | 0.00 | 0.04 | 0.00 | 80 | 1020.5 |
| 20260902001525 | 65 | 317 | 0.0 | 1.0 | 0.00 | 0.04 | 0.00 | 79 | 1020.6 |
| 20260902000053 | 65 | 317 | 0.0 | 1.0 | 0.00 | 0.04 | 0.00 | 80 | 1020.7 |
| 20260901234517 | 66 | 316 | 0.0 | 1.0 | 0.00 | 0.72 | 0.00 | 78 | 1020.8 |
| 20260901233050 | 66 | 316 | 0.0 | 1.0 | 0.00 | 0.72 | 0.00 | 78 | 1020.6 |
| 20260901231523 | 66 | 315 | 0.0 | 0.0 | 0.00 | 0.72 | 0.00 | 79 | 1020.7 |
| 20260901230056 | 66 | 315 | 0.0 | 1.0 | 0.00 | 0.72 | 0.00 | 78 | 1020.7 |
| 20260901224535 | 67 | 315 | 0.0 | 1.0 | 0.00 | 1.65 | 0.00 | 78 | 1020.6 |
| 20260901223014 | 67 | 259 | 0.0 | 2.0 | 0.00 | 1.65 | 0.00 | 78 | 1020.5 |
| 20260901221600 | 67 | 249 | 1.0 | 2.0 | 0.00 | 1.65 | 0.00 | 77 | 1020.4 |
| 20260901220036 | 67 | 229 | 0.0 | 1.0 | 0.00 | 1.65 | 0.00 | 79 | 1020.4 |
| 20260901214522 | 67 | 269 | 0.0 | 1.0 | 0.00 | 1.65 | 1.65 | 80 | 1020.4 |
| 20260901213042 | 67 | 95 | 0.0 | 1.0 | 0.00 | 1.65 | 1.65 | 78 | 1020.4 |
| 20260901211517 | 68 | 110 | 1.0 | 4.0 | 0.00 | 1.65 | 1.65 | 75 | 1020.3 |
| 20260901210112 | 68 | 39 | 1.0 | 4.0 | 0.00 | 1.65 | 1.65 | 75 | 1020.1 |
| 20260901204537 | 68 | 338 | 0.0 | 1.0 | 0.00 | 1.65 | 1.65 | 76 | 1020.1 |
| 20260901203012 | 68 | 338 | 1.0 | 2.0 | 0.00 | 1.65 | 1.65 | 76 | 1020.0 |
| 20260901201551 | 69 | 27 | 0.0 | 0.0 | 0.00 | 1.65 | 1.65 | 75 | 1020.1 |
| 20260901200031 | 70 | 27 | 0.0 | 3.0 | 0.00 | 1.65 | 1.65 | 73 | 1019.9 |
| 20260901194521 | 70 | 66 | 0.0 | 2.0 | 0.00 | 1.65 | 1.65 | 71 | 1019.8 |
| 20260901193007 | 69 | 34 | 1.0 | 3.0 | 0.00 | 1.65 | 1.65 | 72 | 1019.6 |
| 20260901191554 | 70 | 266 | 0.0 | 1.0 | 0.00 | 1.65 | 1.65 | 71 | 1019.5 |
| 20260901190051 | 71 | 260 | 0.0 | 1.0 | 0.00 | 1.65 | 1.65 | 69 | 1019.4 |
| 20260901184519 | 72 | 248 | 0.0 | 1.0 | 0.00 | 1.65 | 1.65 | 68 | 1019.2 |
| 20260901183109 | 72 | 264 | 0.0 | 1.0 | 0.00 | 1.65 | 1.65 | 66 | 1019.2 |
| 20260901181547 | 73 | 276 | 0.0 | 2.0 | 0.00 | 1.65 | 1.65 | 68 | 1018.9 |
| 20260901180034 | 74 | 325 | 1.0 | 3.0 | 0.00 | 1.65 | 1.65 | 63 | 1018.8 |
| 20260901174519 | 75 | 321 | 1.0 | 2.0 | 0.00 | 1.65 | 1.65 | 61 | 1018.6 |
| 20260901173001 | 77 | 243 | 1.0 | 4.0 | 0.00 | 1.65 | 1.65 | 58 | 1018.6 |
| 20260901171551 | 77 | 250 | 1.0 | 5.0 | 0.00 | 1.65 | 1.65 | 56 | 1018.6 |
| 20260901170034 | 78 | 243 | 3.0 | 6.0 | 0.00 | 1.65 | 1.65 | 57 | 1018.7 |
| 20260901164508 | 79 | 264 | 2.0 | 5.0 | 0.00 | 1.65 | 1.65 | 54 | 1018.7 |
| 20260901163053 | 79 | 195 | 1.0 | 5.0 | 0.00 | 1.65 | 1.65 | 53 | 1018.6 |
| 20260901161531 | 80 | 157 | 2.0 | 6.0 | 0.00 | 1.65 | 1.65 | 52 | 1018.7 |
| 20260901160012 | 81 | 215 | 3.0 | 8.0 | 0.00 | 1.65 | 1.65 | 50 | 1018.7 |
| 20260901154615 | 81 | 243 | 3.0 | 8.0 | 0.00 | 1.65 | 1.65 | 49 | 1018.8 |
| 20260901153041 | 81 | 179 | 1.0 | 7.0 | 0.00 | 1.65 | 1.65 | 49 | 1018.9 |
| 20260901151505 | 81 | 195 | 3.0 | 9.0 | 0.00 | 1.65 | 1.65 | 48 | 1018.9 |
| 20260901150055 | 82 | 159 | 2.0 | 8.0 | 0.00 | 1.65 | 1.65 | 47 | 1018.8 |
| 20260901144535 | 82 | 153 | 2.0 | 7.0 | 0.00 | 1.65 | 1.65 | 46 | 1018.9 |
| 20260901143009 | 82 | 162 | 2.0 | 7.0 | 0.00 | 1.65 | 1.65 | 47 | 1019.0 |
| 20260901141556 | 82 | 252 | 4.0 | 7.0 | 0.00 | 1.65 | 1.65 | 45 | 1019.0 |
| 20260901140021 | 82 | 155 | 3.0 | 6.0 | 0.00 | 1.65 | 1.65 | 44 | 1019.1 |
| 20260901134600 | 82 | 105 | 1.0 | 6.0 | 0.00 | 1.65 | 1.65 | 46 | 1019.1 |
| 20260901133038 | 82 | 321 | 2.0 | 4.0 | 0.00 | 1.65 | 1.65 | 47 | 1019.2 |
| 20260901131512 | 83 | 91 | 0.0 | 9.0 | 0.00 | 1.65 | 1.65 | 48 | 1019.4 |
| 20260901130044 | 82 | 233 | 0.0 | 4.0 | 0.00 | 1.65 | 1.65 | 48 | 1019.5 |
| 20260901124536 | 81 | 92 | 1.0 | 4.0 | 0.00 | 1.65 | 1.65 | 48 | 1019.5 |
| 20260901123007 | 82 | 62 | 1.0 | 3.0 | 0.00 | 1.65 | 1.65 | 52 | 1019.7 |
| 20260901121542 | 81 | 271 | 0.0 | 3.0 | 0.00 | 1.65 | 1.65 | 53 | 1019.8 |
| 20260901120017 | 80 | 57 | 1.0 | 5.0 | 0.00 | 1.65 | 1.65 | 54 | 1020.0 |
| 20260901114552 | 79 | 219 | 2.0 | 7.0 | 0.00 | 1.65 | 1.65 | 55 | 1020.1 |
| 20260901113020 | 79 | 65 | 4.0 | 6.0 | 0.00 | 1.65 | 1.65 | 57 | 1020.1 |
| 20260901111555 | 79 | 343 | 0.0 | 5.0 | 0.00 | 1.65 | 1.65 | 57 | 1020.4 |
| 20260901110021 | 79 | 141 | 0.0 | 3.0 | 0.00 | 1.65 | 1.65 | 59 | 1020.6 |
| 20260901104553 | 77 | 212 | 0.0 | 6.0 | 0.00 | 1.65 | 1.65 | 61 | 1020.7 |
| 20260901103023 | 76 | 217 | 0.0 | 3.0 | 0.00 | 1.65 | 1.65 | 62 | 1020.9 |
| 20260901101553 | 75 | 209 | 2.0 | 4.0 | 0.00 | 1.65 | 1.65 | 62 | 1021.0 |
| 20260901100023 | 75 | 221 | 1.0 | 3.0 | 0.00 | 1.65 | 1.65 | 63 | 1021.1 |
| 20260901094555 | 74 | 78 | 1.0 | 4.0 | 0.00 | 1.65 | 1.65 | 63 | 1021.2 |
| 20260901093028 | 73 | 58 | 3.0 | 4.0 | 0.00 | 1.65 | 1.65 | 66 | 1021.2 |
| 20260901091507 | 72 | 141 | 0.0 | 2.0 | 0.00 | 1.65 | 1.65 | 68 | 1021.3 |
| 20260901090045 | 70 | 209 | 1.0 | 2.0 | 0.00 | 1.65 | 1.65 | 71 | 1021.3 |
| 20260901084608 | 69 | 65 | 2.0 | 4.0 | 0.00 | 1.65 | 1.65 | 75 | 1021.3 |
| 20260901083031 | 69 | 85 | 0.0 | 1.0 | 0.00 | 1.65 | 1.65 | 78 | 1021.1 |
| 20260901081501 | 67 | 98 | 0.0 | 2.0 | 0.00 | 1.65 | 1.65 | 80 | 1021.1 |
| 20260901080043 | 66 | 145 | 0.0 | 4.0 | 0.01 | 1.65 | 1.65 | 83 | 1021.1 |
| 20260901074505 | 66 | 122 | 1.0 | 3.0 | 0.01 | 1.65 | 1.65 | 84 | 1021.1 |
| 20260901073037 | 66 | 110 | 0.0 | 2.0 | 0.01 | 1.65 | 1.65 | 86 | 1021.0 |
| 20260901071508 | 64 | 70 | 2.0 | 4.0 | 0.01 | 1.65 | 1.65 | 88 | 1020.9 |
| 20260901070047 | 63 | 43 | 1.0 | 2.0 | 0.00 | 1.64 | 1.64 | 90 | 1020.9 |
| 20260901064519 | 63 | 129 | 2.0 | 3.0 | 0.00 | 1.64 | 1.64 | 89 | 1020.9 |
| 20260901063051 | 64 | 103 | 0.0 | 1.0 | 0.00 | 1.64 | 1.64 | 87 | 1020.9 |
| 20260901061513 | 62 | 184 | 0.0 | 2.0 | 0.00 | 1.64 | 1.64 | 91 | 1021.0 |
| 20260901060045 | 60 | 255 | 0.0 | 1.0 | 0.00 | 1.64 | 1.64 | 94 | 1020.9 |
| 20260901054515 | 60 | 260 | 0.0 | 1.0 | 0.00 | 1.64 | 1.64 | 94 | 1020.7 |
| 20260901053057 | 59 | 348 | 0.0 | 0.0 | 0.00 | 1.64 | 1.64 | 94 | 1020.6 |
| 20260901051517 | 59 | 348 | 0.0 | 2.0 | 0.00 | 1.64 | 1.64 | 94 | 1020.4 |
| 20260901050049 | 58 | 356 | 0.0 | 1.0 | 0.00 | 1.64 | 1.64 | 95 | 1020.1 |
| 20260901044529 | 58 | 295 | 0.0 | 1.0 | 0.00 | 1.64 | 1.64 | 94 | 1020.0 |
| 20260901043049 | 58 | 274 | 0.0 | 1.0 | 0.00 | 1.64 | 1.64 | 94 | 1019.8 |
| 20260901041514 | 58 | 269 | 0.0 | 1.0 | 0.00 | 1.64 | 1.64 | 94 | 1019.7 |
| 20260901040043 | 58 | 270 | 0.0 | 1.0 | 0.00 | 1.64 | 1.64 | 94 | 1019.5 |
| 20260901034528 | 58 | 307 | 0.0 | 2.0 | 0.00 | 1.64 | 1.64 | 94 | 1019.4 |
| 20260901033046 | 58 | 275 | 0.0 | 1.0 | 0.00 | 1.64 | 1.64 | 94 | 1019.4 |
| 20260901031529 | 59 | 275 | 1.0 | 2.0 | 0.00 | 1.64 | 1.64 | 93 | 1019.3 |
| 20260901030047 | 59 | 310 | 0.0 | 2.0 | 0.00 | 1.64 | 1.64 | 93 | 1019.4 |
| 20260901024517 | 59 | 244 | 0.0 | 2.0 | 0.00 | 1.64 | 1.64 | 93 | 1019.4 |
| 20260901023049 | 60 | 255 | 1.0 | 3.0 | 0.00 | 1.64 | 1.64 | 92 | 1019.3 |